This demonstration page uses our WeatherBlox Daily Observations layout. Learn more.

Left ArrowRight Arrow

Hourly Observations for April 10, 2020

Temp ( °F °C ) Dew Point ( °F °C ) Humidity (%) Winds ( mph kmh ) Pressure ( in mb ) Visibility ( mi km ) Precip ( " mm )
12:53 am 00:53 Cloudy 58 14.4 49 9.4 72 72 SSW 3 6 30.09 1019 10 16 0.00 0.00
1:29 am 01:29 Cloudy 58 14.4 49 9.4 72 72 Calm 30.09 1019 10 16 0.00 0.00
1:53 am 01:53 Cloudy 58 14.4 49 9.4 72 72 S 6 9 30.09 1019 10 16 0.00 0.00
2:08 am 02:08 Cloudy 58 14.4 49 9.4 72 72 SW 5 7 30.09 1019 10 16 0.00 0.00
2:53 am 02:53 Cloudy 58 14.4 49 9.4 72 72 Calm 30.09 1019 10 16 0.00 0.00
3:53 am 03:53 Cloudy 57 13.9 49 9.4 74 74 N 3 6 30.07 1018 10 16 0.00 0.00
4:53 am 04:53 Clear 54 12.2 50 10 87 87 N 6 9 30.06 1018 10 16 0.00 0.00
5:53 am 05:53 Clear 53 11.7 49 9.4 86 86 N 5 7 30.05 1018 10 16 0.00 0.00
6:53 am 06:53 Sunny 51 10.6 48 8.9 89 89 NW 3 6 30.04 1017 10 16 0.00 0.00
7:53 am 07:53 Sunny 55 12.8 50 10 83 83 Calm 30.04 1017 10 16 0.00 0.00
8:53 am 08:53 Sunny 57 13.9 51 10.6 81 81 Calm 30.03 1017 10 16 0.00 0.00
9:53 am 09:53 Sunny 61 16.1 50 10 67 67 VRB 5 7 30.01 1016 10 16 0.00 0.00
10:53 am 10:53 Sunny 64 17.8 52 11.1 65 65 Calm 30.00 1016 10 16 0.00 0.00
11:53 am 11:53 Sunny 67 19.4 52 11.1 59 59 VRB 3 6 29.97 1015 10 16 0.00 0.00
12:53 pm 12:53 Sunny 69 20.6 51 10.6 53 53 S 6 9 29.94 1014 10 16 0.00 0.00
1:53 pm 13:53 Sunny 72 22.2 52 11.1 50 50 VRB 6 9 29.91 1013 10 16 0.00 0.00
2:53 pm 14:53 Sunny 74 23.3 49 9.4 41 41 VRB 5 7 29.88 1012 10 16 0.00 0.00
3:53 pm 15:53 Sunny 75 23.9 54 12.2 48 48 SSE 8 13 29.85 1011 10 16 0.00 0.00
4:53 pm 16:53 Sunny 75 23.9 53 11.7 46 46 SSE 12 19 29.84 1011 10 16 0.00 0.00
5:53 pm 17:53 Sunny 74 23.3 53 11.7 48 48 SE 10 17 29.83 1010 10 16 0.00 0.00
6:53 pm 18:53 Sunny 72 22.2 53 11.7 52 52 SSE 12 19 29.84 1011 10 16 0.00 0.00
7:53 pm 19:53 Clear 67 19.4 52 11.1 59 59 SSE 8 13 29.86 1011 10 16 0.00 0.00
8:53 pm 20:53 Clear 65 18.3 51 10.6 61 61 Calm 29.90 1012 10 16 0.00 0.00
9:53 pm 21:53 Clear 64 17.8 51 10.6 63 63 Calm 29.94 1014 10 16 0.00 0.00
10:53 pm 22:53 Clear 64 17.8 51 10.6 63 63 SSW 8 13 29.95 1014 10 16 0.00 0.00
11:53 pm 23:53 Clear 61 16.1 51 10.6 70 70 SW 5 7 29.98 1015 10 16 0.00 0.00

Powered by AerisWeather